Tracking 20242 objects as of 24-Jan-2020
HD Live streaming from Space Station
objects crossing your sky now

ARIANE 5 DEB (SYLDA)

Track ARIANE 5 DEB (SYLDA) now!
10-day predictions


NORAD ID: 38781
Int'l Code: 2012-051D
Perigee: 217.2 km
Apogee: 15,382.2 km
Inclination: 6.4 °
Period: 279.8 minutes
Semi major axis: 14170 km
RCS: 10.0393 m2 (large)
Launch date: September 28, 2012
Source: France (FR)
Launch site: FRENCH GUIANA (FRGUI)

Note: This is SATELLITE DEBRIS
aabbcc
Your satellite tracking list
Your tracking list is empty




NASA's NSSDC Master Catalog

Two Line Element Set (TLE):
1 38781U 12051D   20023.75193836  .00061323  00000-0  18051-2 0  9997
2 38781   6.3720 242.6978 5350813 315.5755  12.2254  5.14652487112586
Source of the keplerian elements: AFSPC